| time (UTC) | temp F | wind direction | speed MPH | gust MPH | rain 1hr in | rain 24hr in | rain mn in | humidity % | barometer mb |
| 20260831233919 | 71 | 203 | 6.0 | 6.0 | 0.00 | 0.00 | 0.00 | 63 | 1011.2 |
| 20260831230304 | 73 | 203 | 6.0 | 6.0 | 0.00 | 0.00 | 0.00 | 60 | 1011.6 |
| 20260831224629 | 75 | 203 | 5.0 | 5.0 | 0.00 | 0.00 | 0.00 | 59 | 1011.6 |
| 20260831222824 | 74 | 248 | 6.0 | 6.0 | 0.00 | 0.00 | 0.00 | 60 | 1011.9 |
| 20260831221859 | 73 | 225 | 7.0 | 7.0 | 0.00 | 0.00 | 0.00 | 61 | 1011.9 |
| 20260831221129 | 75 | 248 | 7.0 | 7.0 | 0.00 | 0.00 | 0.00 | 58 | 1012.1 |
| 20260831220609 | 76 | 338 | 4.0 | 4.0 | 0.00 | 0.00 | 0.00 | 57 | 1012.1 |
| 20260831214129 | 76 | 270 | 6.0 | 6.0 | 0.00 | 0.00 | 0.00 | 57 | 1012.2 |
| 20260831212629 | 76 | 225 | 5.0 | 5.0 | 0.00 | 0.00 | 0.00 | 57 | 1012.4 |
| 20260831212109 | 74 | 293 | 7.0 | 7.0 | 0.00 | 0.00 | 0.00 | 58 | 1012.4 |
| 20260831211434 | 75 | 248 | 5.0 | 5.0 | 0.00 | 0.00 | 0.00 | 58 | 1012.4 |
| 20260831210629 | 77 | 270 | 5.0 | 5.0 | 0.00 | 0.00 | 0.00 | 56 | 1012.4 |
| 20260831210109 | 79 | 225 | 4.0 | 4.0 | 0.00 | 0.00 | 0.00 | 54 | 1012.4 |
| 20260831201320 | 79 | 90 | 4.0 | 4.0 | 0.00 | 0.00 | 0.00 | 53 | 1012.4 |
| 20260831200744 | 78 | 113 | 3.0 | 3.0 | 0.00 | 0.00 | 0.00 | 54 | 1012.4 |
| 20260831195804 | 76 | 158 | 4.0 | 4.0 | 0.00 | 0.00 | 0.00 | 58 | 1012.6 |
| 20260831195204 | 76 | 135 | 4.0 | 4.0 | 0.00 | 0.00 | 0.00 | 58 | 1012.6 |
| 20260831194649 | 75 | 113 | 4.0 | 4.0 | 0.00 | 0.00 | 0.00 | 59 | 1012.6 |
| 20260831194049 | 75 | 90 | 4.0 | 4.0 | 0.00 | 0.00 | 0.00 | 59 | 1012.9 |
| 20260831193535 | 73 | 23 | 4.0 | 4.0 | 0.00 | 0.00 | 0.00 | 63 | 1012.9 |
| 20260831193029 | 74 | 248 | 3.0 | 3.0 | 0.00 | 0.00 | 0.00 | 61 | 1012.9 |
| 20260831192205 | 73 | 45 | 3.0 | 3.0 | 0.00 | 0.00 | 0.00 | 64 | 1013.0 |
| 20260831191704 | 72 | 135 | 3.0 | 3.0 | 0.00 | 0.00 | 0.00 | 64 | 1013.0 |
| 20260831191144 | 72 | 270 | 3.0 | 3.0 | 0.00 | 0.00 | 0.00 | 66 | 1013.0 |
| 20260831190049 | 70 | 203 | 3.0 | 3.0 | 0.00 | 0.00 | 0.00 | 69 | 1013.1 |
| 20260831185530 | 68 | 90 | 4.0 | 4.0 | 0.00 | 0.00 | 0.00 | 71 | 1013.1 |
| 20260831185014 | 67 | 315 | 2.0 | 2.0 | 0.00 | 0.00 | 0.00 | 74 | 1013.1 |
| 20260831184454 | 66 | 68 | 4.0 | 4.0 | 0.00 | 0.00 | 0.00 | 75 | 1013.1 |
| 20260831183935 | 65 | 135 | 3.0 | 3.0 | 0.00 | 0.00 | 0.00 | 76 | 1013.3 |
| 20260831183414 | 64 | 90 | 3.0 | 3.0 | 0.00 | 0.00 | 0.00 | 78 | 1013.3 |
| 20260831182859 | 63 | 113 | 2.0 | 2.0 | 0.00 | 0.00 | 0.00 | 79 | 1013.3 |
| 20260831182340 | 62 | 90 | 2.0 | 2.0 | 0.00 | 0.00 | 0.00 | 81 | 1013.3 |
| 20260831181819 | 61 | 180 | 1.0 | 1.0 | 0.00 | 0.00 | 0.00 | 82 | 1013.3 |
| 20260831181300 | 60 | 90 | 3.0 | 3.0 | 0.00 | 0.00 | 0.00 | 84 | 1013.3 |
| 20260831180225 | 59 | 45 | 0.0 | 0.0 | 0.00 | 0.00 | 0.00 | 86 | 1013.1 |
| 20260831175704 | 59 | 68 | 0.0 | 0.0 | 0.00 | 0.00 | 0.00 | 87 | 1013.1 |
| 20260831175144 | 58 | 203 | 0.0 | 0.0 | 0.00 | 0.00 | 0.00 | 88 | 1013.1 |
| 20260831174609 | 57 | 23 | 1.0 | 1.0 | 0.00 | 0.00 | 0.00 | 91 | 1013.1 |
| 20260831174049 | 56 | 90 | 2.0 | 2.0 | 0.00 | 0.00 | 0.00 | 92 | 1013.1 |
| 20260831173529 | 55 | 23 | 3.0 | 3.0 | 0.00 | 0.00 | 0.00 | 92 | 1013.1 |
| 20260831173014 | 55 | 45 | 0.0 | 0.0 | 0.00 | 0.00 | 0.00 | 93 | 1012.9 |
| 20260831172454 | 55 | 90 | 3.0 | 3.0 | 0.00 | 0.00 | 0.00 | 93 | 1012.9 |
| 20260831171934 | 56 | 113 | 0.0 | 0.0 | 0.00 | 0.00 | 0.00 | 93 | 1012.9 |
| 20260831171414 | 55 | 113 | 2.0 | 2.0 | 0.00 | 0.00 | 0.00 | 94 | 1012.9 |
| 20260831170859 | 55 | 68 | 0.0 | 0.0 | 0.00 | 0.00 | 0.00 | 94 | 1012.9 |
| 20260831170339 | 55 | 315 | 0.0 | 0.0 | 0.00 | 0.00 | 0.00 | 94 | 1012.8 |
| 20260831165820 | 55 | 0 | 0.0 | 0.0 | 0.00 | 0.00 | 0.00 | 95 | 1012.8 |
| 20260831165259 | 55 | 90 | 0.0 | 0.0 | 0.00 | 0.00 | 0.00 | 95 | 1012.6 |
| 20260831164745 | 54 | 45 | 2.0 | 2.0 | 0.00 | 0.00 | 0.00 | 95 | 1012.6 |
| 20260831164225 | 54 | 68 | 0.0 | 0.0 | 0.00 | 0.00 | 0.00 | 95 | 1012.8 |
| 20260831163645 | 55 | 90 | 0.0 | 0.0 | 0.00 | 0.00 | 0.00 | 95 | 1012.8 |
| 20260831162610 | 54 | 23 | 0.0 | 0.0 | 0.00 | 0.00 | 0.00 | 96 | 1012.6 |
| 20260831162049 | 54 | 45 | 0.0 | 0.0 | 0.00 | 0.00 | 0.00 | 96 | 1012.6 |
| 20260831161529 | 54 | 338 | 0.0 | 0.0 | 0.00 | 0.00 | 0.00 | 96 | 1012.6 |
| 20260831160455 | 54 | 293 | 0.0 | 0.0 | 0.00 | 0.00 | 0.00 | 96 | 1012.6 |
| 20260831154320 | 53 | 113 | 0.0 | 0.0 | 0.00 | 0.00 | 0.00 | 96 | 1012.6 |
| 20260831153800 | 53 | 135 | 0.0 | 0.0 | 0.00 | 0.00 | 0.00 | 96 | 1012.4 |
| 20260831153145 | 53 | 45 | 0.0 | 0.0 | 0.00 | 0.00 | 0.00 | 96 | 1012.4 |
| 20260831151550 | 53 | 68 | 0.0 | 0.0 | 0.00 | 0.00 | 0.00 | 96 | 1012.1 |
| 20260831151030 | 53 | 90 | 0.0 | 0.0 | 0.00 | 0.00 | 0.00 | 96 | 1012.1 |
| 20260831150515 | 53 | 68 | 0.0 | 0.0 | 0.00 | 0.00 | 0.00 | 96 | 1012.1 |
| 20260831145955 | 53 | 45 | 0.0 | 0.0 | 0.00 | 0.00 | 0.00 | 96 | 1012.1 |
| 20260831144915 | 53 | 270 | 0.0 | 0.0 | 0.00 | 0.00 | 0.00 | 96 | 1012.1 |
| 20260831144400 | 52 | 248 | 0.0 | 0.0 | 0.00 | 0.00 | 0.00 | 96 | 1012.1 |
| 20260831143759 | 52 | 225 | 0.0 | 0.0 | 0.00 | 0.00 | 0.00 | 96 | 1011.9 |
| 20260831142645 | 52 | 0 | 0.0 | 0.0 | 0.00 | 0.00 | 0.00 | 96 | 1011.6 |
| 20260831142109 | 52 | 68 | 0.0 | 0.0 | 0.00 | 0.00 | 0.00 | 96 | 1011.6 |
| 20260831141030 | 51 | 45 | 0.0 | 0.0 | 0.00 | 0.00 | 0.00 | 96 | 1011.5 |
| 20260831140515 | 51 | 45 | 0.0 | 0.0 | 0.00 | 0.00 | 0.00 | 96 | 1011.4 |
| 20260831135955 | 51 | 90 | 0.0 | 0.0 | 0.00 | 0.00 | 0.00 | 96 | 1011.4 |
| 20260831135434 | 51 | 23 | 0.0 | 0.0 | 0.00 | 0.00 | 0.00 | 96 | 1011.4 |
| 20260831134915 | 51 | 68 | 0.0 | 0.0 | 0.00 | 0.00 | 0.00 | 96 | 1011.3 |
| 20260831134400 | 51 | 113 | 0.0 | 0.0 | 0.00 | 0.00 | 0.00 | 96 | 1011.3 |
| 20260831133320 | 51 | 90 | 0.0 | 0.0 | 0.00 | 0.00 | 0.00 | 96 | 1011.1 |
| 20260831132759 | 51 | 68 | 0.0 | 0.0 | 0.00 | 0.00 | 0.00 | 96 | 1011.0 |
| 20260831131745 | 51 | 68 | 0.0 | 0.0 | 0.00 | 0.00 | 0.00 | 96 | 1011.2 |
| 20260831131240 | 52 | 68 | 0.0 | 0.0 | 0.00 | 0.00 | 0.00 | 96 | 1011.2 |
| 20260831130725 | 52 | 90 | 0.0 | 0.0 | 0.00 | 0.00 | 0.00 | 96 | 1011.2 |
| 20260831130144 | 52 | 45 | 0.0 | 0.0 | 0.00 | 0.00 | 0.00 | 96 | 1011.2 |
| 20260831125110 | 52 | 90 | 0.0 | 0.0 | 0.00 | 0.00 | 0.00 | 96 | 1011.0 |
| 20260831124030 | 52 | 68 | 0.0 | 0.0 | 0.00 | 0.00 | 0.00 | 96 | 1011.0 |
| 20260831122955 | 52 | 90 | 0.0 | 0.0 | 0.00 | 0.00 | 0.00 | 96 | 1011.1 |
| 20260831121935 | 52 | 270 | 0.0 | 0.0 | 0.00 | 0.00 | 0.00 | 96 | 1011.1 |
| 20260831121415 | 52 | 45 | 0.0 | 0.0 | 0.00 | 0.00 | 0.00 | 96 | 1011.0 |
| 20260831120855 | 52 | 45 | 0.0 | 0.0 | 0.00 | 0.00 | 0.00 | 96 | 1011.0 |
| 20260831120340 | 52 | 68 | 0.0 | 0.0 | 0.00 | 0.00 | 0.00 | 96 | 1011.1 |
| 20260831115820 | 52 | 225 | 0.0 | 0.0 | 0.00 | 0.00 | 0.00 | 96 | 1011.1 |
| 20260831115225 | 52 | 203 | 0.0 | 0.0 | 0.00 | 0.00 | 0.00 | 96 | 1011.1 |
| 20260831114645 | 52 | 225 | 0.0 | 0.0 | 0.00 | 0.00 | 0.00 | 96 | 1011.1 |
| 20260831114125 | 52 | 225 | 0.0 | 0.0 | 0.00 | 0.00 | 0.00 | 96 | 1011.1 |
| 20260831113610 | 52 | 225 | 0.0 | 0.0 | 0.00 | 0.00 | 0.00 | 96 | 1011.1 |
| 20260831111415 | 52 | 180 | 0.0 | 0.0 | 0.00 | 0.00 | 0.00 | 96 | 1011.1 |
| 20260831110855 | 52 | 225 | 0.0 | 0.0 | 0.00 | 0.00 | 0.00 | 96 | 1011.1 |
| 20260831110340 | 52 | 248 | 0.0 | 0.0 | 0.00 | 0.00 | 0.00 | 96 | 1010.9 |
| 20260831105820 | 52 | 180 | 0.0 | 0.0 | 0.00 | 0.00 | 0.00 | 96 | 1010.9 |
| 20260831105320 | 52 | 203 | 0.0 | 0.0 | 0.00 | 0.00 | 0.00 | 96 | 1010.9 |
| 20260831104800 | 52 | 225 | 0.0 | 0.0 | 0.00 | 0.00 | 0.00 | 95 | 1010.9 |
| 20260831104240 | 51 | 225 | 0.0 | 0.0 | 0.00 | 0.00 | 0.00 | 95 | 1010.9 |
| 20260831103725 | 51 | 203 | 0.0 | 0.0 | 0.00 | 0.00 | 0.00 | 95 | 1010.9 |
| 20260831102110 | 50 | 270 | 0.0 | 0.0 | 0.00 | 0.00 | 0.00 | 95 | 1010.9 |
| 20260831101550 | 50 | 225 | 0.0 | 0.0 | 0.00 | 0.00 | 0.00 | 95 | 1010.7 |
| 20260831101030 | 50 | 225 | 0.0 | 0.0 | 0.00 | 0.00 | 0.00 | 95 | 1010.7 |
| 20260831100511 | 50 | 225 | 0.0 | 0.0 | 0.00 | 0.00 | 0.00 | 95 | 1010.6 |
| 20260831095955 | 50 | 248 | 0.0 | 0.0 | 0.00 | 0.00 | 0.00 | 95 | 1010.6 |
| 20260831094915 | 50 | 225 | 0.0 | 0.0 | 0.00 | 0.00 | 0.00 | 95 | 1010.6 |
| 20260831094355 | 49 | 225 | 0.0 | 0.0 | 0.00 | 0.00 | 0.00 | 95 | 1010.6 |
| 20260831093320 | 49 | 225 | 0.0 | 0.0 | 0.00 | 0.00 | 0.00 | 95 | 1010.7 |
| 20260831092800 | 50 | 248 | 0.0 | 0.0 | 0.00 | 0.00 | 0.00 | 95 | 1010.6 |
| 20260831092240 | 50 | 225 | 0.0 | 0.0 | 0.00 | 0.00 | 0.00 | 95 | 1010.6 |
| 20260831091725 | 50 | 248 | 0.0 | 0.0 | 0.00 | 0.00 | 0.00 | 94 | 1010.6 |
| 20260831091145 | 50 | 248 | 0.0 | 0.0 | 0.00 | 0.00 | 0.00 | 94 | 1010.6 |
| 20260831090110 | 50 | 248 | 0.0 | 0.0 | 0.00 | 0.00 | 0.00 | 94 | 1010.8 |
| 20260831085550 | 50 | 225 | 0.0 | 0.0 | 0.00 | 0.00 | 0.00 | 94 | 1010.8 |
| 20260831085030 | 50 | 270 | 0.0 | 0.0 | 0.00 | 0.00 | 0.00 | 94 | 1010.8 |
| 20260831083955 | 49 | 270 | 0.0 | 0.0 | 0.00 | 0.00 | 0.00 | 93 | 1010.9 |
| 20260831083435 | 49 | 248 | 0.0 | 0.0 | 0.00 | 0.00 | 0.00 | 93 | 1010.9 |
| 20260831082915 | 49 | 248 | 0.0 | 0.0 | 0.00 | 0.00 | 0.00 | 93 | 1010.9 |
| 20260831081840 | 49 | 225 | 0.0 | 0.0 | 0.00 | 0.00 | 0.00 | 93 | 1010.9 |
| 20260831080800 | 49 | 225 | 0.0 | 0.0 | 0.00 | 0.00 | 0.00 | 92 | 1010.9 |
| 20260831080240 | 49 | 225 | 0.0 | 0.0 | 0.00 | 0.00 | 0.00 | 92 | 1010.9 |
| 20260831075725 | 49 | 225 | 0.0 | 0.0 | 0.00 | 0.00 | 0.00 | 92 | 1010.9 |
| 20260831074625 | 49 | 225 | 0.0 | 0.0 | 0.00 | 0.00 | 0.00 | 91 | 1010.9 |
| 20260831074110 | 50 | 225 | 0.0 | 0.0 | 0.00 | 0.00 | 0.00 | 91 | 1011.0 |
| 20260831073550 | 50 | 225 | 0.0 | 0.0 | 0.00 | 0.00 | 0.00 | 91 | 1011.0 |
| 20260831073030 | 50 | 225 | 0.0 | 0.0 | 0.00 | 0.00 | 0.00 | 91 | 1011.1 |
| 20260831072510 | 50 | 225 | 0.0 | 0.0 | 0.00 | 0.00 | 0.00 | 91 | 1011.1 |
| 20260831071957 | 50 | 225 | 0.0 | 0.0 | 0.00 | 0.00 | 0.00 | 91 | 1011.1 |
| 20260831071455 | 50 | 248 | 0.0 | 0.0 | 0.00 | 0.00 | 0.00 | 90 | 1011.0 |
| 20260831070935 | 50 | 225 | 0.0 | 0.0 | 0.00 | 0.00 | 0.00 | 89 | 1011.0 |
| 20260831070416 | 50 | 225 | 0.0 | 0.0 | 0.00 | 0.00 | 0.00 | 87 | 1010.9 |
| 20260831065915 | 50 | 225 | 0.0 | 0.0 | 0.00 | 0.00 | 0.00 | 87 | 1010.9 |
| 20260831065356 | 50 | 270 | 0.0 | 0.0 | 0.00 | 0.00 | 0.00 | 87 | 1010.9 |
| 20260831063855 | 51 | 225 | 0.0 | 0.0 | 0.00 | 0.00 | 0.00 | 88 | 1011.0 |
| 20260831063340 | 51 | 225 | 0.0 | 0.0 | 0.00 | 0.00 | 0.00 | 88 | 1011.0 |
| 20260831062741 | 51 | 248 | 0.0 | 0.0 | 0.00 | 0.00 | 0.00 | 88 | 1010.9 |
| 20260831062240 | 52 | 225 | 0.0 | 0.0 | 0.00 | 0.00 | 0.00 | 89 | 1010.9 |
| 20260831061740 | 52 | 45 | 0.0 | 0.0 | 0.00 | 0.00 | 0.00 | 89 | 1010.9 |
| 20260831060725 | 52 | 68 | 0.0 | 0.0 | 0.00 | 0.00 | 0.00 | 89 | 1010.9 |
| 20260831060226 | 52 | 90 | 0.0 | 0.0 | 0.00 | 0.00 | 0.00 | 89 | 1010.8 |
| 20260831055705 | 52 | 45 | 0.0 | 0.0 | 0.00 | 0.00 | 0.00 | 88 | 1010.8 |
| 20260831055145 | 52 | 45 | 0.0 | 0.0 | 0.00 | 0.00 | 0.00 | 85 | 1010.8 |
| 20260831054625 | 53 | 135 | 0.0 | 0.0 | 0.00 | 0.00 | 0.00 | 82 | 1010.8 |
| 20260831054110 | 53 | 270 | 0.0 | 0.0 | 0.00 | 0.00 | 0.00 | 83 | 1010.8 |
| 20260831053550 | 53 | 225 | 0.0 | 0.0 | 0.00 | 0.00 | 0.00 | 83 | 1010.8 |
| 20260831053030 | 54 | 225 | 0.0 | 0.0 | 0.00 | 0.00 | 0.00 | 83 | 1010.8 |
| 20260831052510 | 54 | 248 | 0.0 | 0.0 | 0.00 | 0.00 | 0.00 | 83 | 1010.8 |
| 20260831051436 | 54 | 248 | 0.0 | 0.0 | 0.00 | 0.00 | 0.00 | 82 | 1010.8 |
| 20260831050915 | 55 | 225 | 0.0 | 0.0 | 0.00 | 0.00 | 0.00 | 81 | 1010.8 |
| 20260831045840 | 55 | 68 | 0.0 | 0.0 | 0.00 | 0.00 | 0.00 | 80 | 1010.7 |
| 20260831045320 | 56 | 248 | 0.0 | 0.0 | 0.00 | 0.00 | 0.00 | 77 | 1010.8 |
| 20260831044801 | 56 | 203 | 0.0 | 0.0 | 0.00 | 0.00 | 0.00 | 76 | 1010.8 |
| 20260831044240 | 57 | 248 | 0.0 | 0.0 | 0.00 | 0.00 | 0.00 | 76 | 1010.8 |
| 20260831043725 | 57 | 45 | 0.0 | 0.0 | 0.00 | 0.00 | 0.00 | 77 | 1010.8 |
| 20260831043205 | 57 | 90 | 0.0 | 0.0 | 0.00 | 0.00 | 0.00 | 77 | 1010.8 |
| 20260831042646 | 57 | 90 | 0.0 | 0.0 | 0.00 | 0.00 | 0.00 | 77 | 1010.7 |
| 20260831041611 | 58 | 45 | 0.0 | 0.0 | 0.00 | 0.00 | 0.00 | 76 | 1010.5 |
| 20260831041051 | 59 | 68 | 0.0 | 0.0 | 0.00 | 0.00 | 0.00 | 71 | 1010.5 |
| 20260831040531 | 59 | 338 | 0.0 | 0.0 | 0.00 | 0.00 | 0.00 | 71 | 1010.4 |
| 20260831035455 | 60 | 45 | 0.0 | 0.0 | 0.00 | 0.00 | 0.00 | 68 | 1010.4 |
| 20260831034936 | 60 | 270 | 0.0 | 0.0 | 0.00 | 0.00 | 0.00 | 69 | 1010.3 |
| 20260831033856 | 61 | 225 | 0.0 | 0.0 | 0.00 | 0.00 | 0.00 | 66 | 1010.4 |
| 20260831032821 | 62 | 45 | 0.0 | 0.0 | 0.00 | 0.00 | 0.00 | 67 | 1010.3 |
| 20260831032300 | 62 | 248 | 0.0 | 0.0 | 0.00 | 0.00 | 0.00 | 66 | 1010.3 |
| 20260831031740 | 63 | 270 | 0.0 | 0.0 | 0.00 | 0.00 | 0.00 | 65 | 1010.2 |
| 20260831031240 | 64 | 203 | 0.0 | 0.0 | 0.00 | 0.00 | 0.00 | 63 | 1010.2 |
| 20260831030725 | 64 | 225 | 0.0 | 0.0 | 0.00 | 0.00 | 0.00 | 62 | 1010.2 |
| 20260831025645 | 66 | 248 | 0.0 | 0.0 | 0.00 | 0.00 | 0.00 | 61 | 1010.2 |
| 20260831025125 | 66 | 248 | 2.0 | 2.0 | 0.00 | 0.00 | 0.00 | 60 | 1010.2 |
| 20260831024611 | 67 | 248 | 2.0 | 2.0 | 0.00 | 0.00 | 0.00 | 59 | 1010.2 |
| 20260831023010 | 70 | 270 | 3.0 | 3.0 | 0.00 | 0.00 | 0.00 | 56 | 1010.3 |
| 20260831022456 | 71 | 248 | 3.0 | 3.0 | 0.00 | 0.00 | 0.00 | 55 | 1010.3 |
| 20260831021936 | 72 | 225 | 2.0 | 2.0 | 0.00 | 0.00 | 0.00 | 52 | 1010.3 |
| 20260831021415 | 72 | 270 | 2.0 | 2.0 | 0.00 | 0.00 | 0.00 | 51 | 1010.4 |
| 20260831020856 | 73 | 248 | 3.0 | 3.0 | 0.00 | 0.00 | 0.00 | 50 | 1010.4 |
| 20260831020340 | 74 | 225 | 3.0 | 3.0 | 0.00 | 0.00 | 0.00 | 48 | 1010.6 |
| 20260831015821 | 75 | 225 | 3.0 | 3.0 | 0.00 | 0.00 | 0.00 | 48 | 1010.6 |
| 20260831015301 | 75 | 225 | 3.0 | 3.0 | 0.00 | 0.00 | 0.00 | 47 | 1010.6 |
| 20260831014741 | 75 | 225 | 3.0 | 3.0 | 0.00 | 0.00 | 0.00 | 46 | 1010.6 |
| 20260831014225 | 75 | 248 | 3.0 | 3.0 | 0.00 | 0.00 | 0.00 | 46 | 1010.6 |